Location: Caltech
(34.1382°N, 118.1253°W)
Time: 04:14:35
(UTC-07:00)

HO-68 - Visible Passes

Search period start: 01 September 2014 00:00
Search period end: 11 September 2014 00:00
Orbit: 1193 x 1204 km, 100.2° (Epoch: 01 September)

Date Brightness Start Highest point End Pass type
(mag) Time Alt. Az. Time Alt. Az. Time Alt. Az.
01 Sep ? 19:38:48 10° E 19:43:21 19° ENE 19:47:55 10° NNE visible
01 Sep ? 21:26:26 30° S 21:30:16 75° WSW 21:37:26 10° NNW visible
02 Sep ? 21:09:23 29° SSE 21:13:23 84° ENE 21:20:33 10° NNW visible
02 Sep ? 22:58:51 11° WSW 23:01:44 14° W 23:05:08 10° WNW visible
03 Sep ? 20:52:21 26° SE 20:56:33 64° ENE 21:03:35 10° N visible
03 Sep ? 22:41:49 16° WSW 22:44:38 20° W 22:49:35 10° NW visible
04 Sep ? 20:35:19 22° SE 20:39:45 48° ENE 20:46:31 10° N visible
04 Sep ? 22:24:47 21° SW 22:27:34 27° W 22:33:28 10° NW visible
05 Sep ? 20:18:18 17° ESE 20:22:59 36° ENE 20:29:21 10° N visible
05 Sep ? 22:07:45 27° SW 22:10:33 37° W 22:17:04 10° NNW visible
06 Sep ? 20:01:16 13° ESE 20:06:17 28° ENE 20:12:03 10° N visible
06 Sep ? 21:50:43 33° SSW 21:53:35 50° W 22:00:28 10° NNW visible
07 Sep ? 19:44:39 10° ESE 19:49:37 21° ENE 19:54:35 10° NNE visible
07 Sep ? 21:33:42 38° S 21:36:38 67° WSW 21:43:45 10° NNW visible
08 Sep ? 19:29:11 10° E 19:33:00 15° ENE 19:36:49 10° NNE visible
08 Sep ? 21:16:40 38° SSE 21:19:44 87° WSW 21:26:55 10° NNW visible
08 Sep ? 23:06:08 10° WSW 23:08:12 12° W 23:10:31 10° WNW visible
09 Sep ? 20:59:39 35° SSE 21:02:53 72° ENE 21:09:59 10° N visible
09 Sep ? 22:49:06 16° WSW 22:51:05 17° W 22:55:30 10° NW visible
10 Sep ? 20:42:38 30° SE 20:46:04 54° ENE 20:52:58 10° N visible
10 Sep ? 22:32:05 22° WSW 22:34:00 24° W 22:39:33 10° NW visible
